When you browse on this site, cookies collect data to enhance your experience and personalize the content and advertising you see.
Visit our Privacy Policy to learn more. By continuing to use the site, you agree to this use of cookies and data.
EN

Hourly Weather Bihać

Today, 10 July, Friday

Time Temperature Precipitation Wind Pressure Humidity
00:00 +18°C° 0 mm 1 mps 711 mmHg 53%
01:00 +18°C° 0 mm 1 mps 711 mmHg 50%
02:00 +18°C° 0 mm 1 mps 710 mmHg 47%
03:00 +18°C° 0 mm 1 mps 710 mmHg 45%
04:00 +16°C° 0 mm 1 mps 710 mmHg 43%
05:00 +19°C° 0 mm 1 mps 710 mmHg 45%
06:00 +21°C° 0 mm 1 mps 711 mmHg 47%
07:00 +21°C° 0 mm 0 mps 711 mmHg 49%
08:00 +23°C° 0 mm 0 mps 711 mmHg 43%
09:00 +27°C° 0 mm 1 mps 711 mmHg 38%
10:00 +29°C° 0 mm 1 mps 712 mmHg 33%
11:00 +29°C° 0 mm 1 mps 712 mmHg 32%
12:00 +29°C° 0 mm 1 mps 712 mmHg 32%
13:00 +30°C° 0 mm 1 mps 711 mmHg 32%
14:00 +29°C° 0 mm 2 mps 711 mmHg 34%
15:00 +29°C° 0 mm 2 mps 711 mmHg 37%
16:00 +28°C° 0 mm 2 mps 711 mmHg 40%
17:00 +27°C° 0 mm 1 mps 710 mmHg 47%
18:00 +25°C° 0 mm 1 mps 709 mmHg 54%
19:00 +23°C° 0 mm 1 mps 709 mmHg 61%
20:00 +22°C° 0 mm 1 mps 709 mmHg 59%
21:00 +21°C° 0 mm 1 mps 709 mmHg 57%
22:00 +20°C° 0 mm 1 mps 709 mmHg 55%
23:00 +20°C° 0 mm 1 mps 709 mmHg 54%

Tomorrow, 11 July, Saturday

Time Temperature Precipitation Wind Pressure Humidity
00:00 +20°C° 0 mm 1 mps 709 mmHg 54%
01:00 +19°C° 0 mm 1 mps 709 mmHg 53%
02:00 +19°C° 0 mm 1 mps 709 mmHg 52%
03:00 +19°C° 0 mm 1 mps 709 mmHg 51%
04:00 +19°C° 0 mm 1 mps 709 mmHg 50%
05:00 +21°C° 0 mm 1 mps 709 mmHg 51%
06:00 +22°C° 0 mm 1 mps 709 mmHg 51%
07:00 +24°C° 0 mm 1 mps 709 mmHg 52%
08:00 +25°C° 0 mm 1 mps 710 mmHg 47%
09:00 +27°C° 0 mm 1 mps 710 mmHg 42%
10:00 +29°C° 0 mm 1 mps 710 mmHg 37%
11:00 +29°C° 0 mm 2 mps 710 mmHg 37%
12:00 +29°C° 0 mm 2 mps 710 mmHg 36%
13:00 +30°C° 0 mm 2 mps 710 mmHg 36%
14:00 +30°C° 0 mm 2 mps 710 mmHg 38%
15:00 +29°C° 0 mm 2 mps 710 mmHg 39%
16:00 +29°C° 0 mm 2 mps 710 mmHg 41%
17:00 +27°C° 0.2 mm 2 mps 710 mmHg 53%
18:00 +24°C° 0.2 mm 3 mps 710 mmHg 65%
19:00 +21°C° 0.2 mm 3 mps 710 mmHg 77%
20:00 +20°C° 0.1 mm 4 mps 710 mmHg 81%
21:00 +18°C° 0.1 mm 4 mps 711 mmHg 84%
22:00 +16°C° 0.1 mm 5 mps 711 mmHg 87%
23:00 +15°C° 0.2 mm 5 mps 711 mmHg 88%

Day after tomorrow, 12 July, Sunday

Time Temperature Precipitation Wind Pressure Humidity
00:00 +14°C° 0.2 mm 5 mps 711 mmHg 88%
01:00 +13°C° 0.2 mm 5 mps 711 mmHg 89%
02:00 +13°C° 0.2 mm 5 mps 711 mmHg 89%
03:00 +13°C° 0.2 mm 5 mps 711 mmHg 90%
04:00 +12°C° 0.2 mm 4 mps 711 mmHg 90%
05:00 +13°C° 0 mm 5 mps 712 mmHg 88%
06:00 +13°C° 0 mm 5 mps 712 mmHg 86%
07:00 +14°C° 0 mm 5 mps 712 mmHg 83%
08:00 +15°C° 0 mm 5 mps 713 mmHg 72%
09:00 +17°C° 0 mm 6 mps 713 mmHg 62%
10:00 +19°C° 0 mm 6 mps 713 mmHg 51%
11:00 +20°C° 0 mm 6 mps 713 mmHg 49%
12:00 +21°C° 0 mm 5 mps 714 mmHg 47%
13:00 +21°C° 0 mm 5 mps 714 mmHg 44%
14:00 +21°C° 0 mm 5 mps 714 mmHg 45%
15:00 +21°C° 0 mm 5 mps 713 mmHg 45%
16:00 +21°C° 0 mm 5 mps 713 mmHg 45%
17:00 +20°C° 0 mm 4 mps 713 mmHg 51%
18:00 +19°C° 0 mm 4 mps 713 mmHg 57%
19:00 +17°C° 0 mm 4 mps 713 mmHg 62%
20:00 +15°C° 0 mm 4 mps 713 mmHg 65%
21:00 +13°C° 0 mm 3 mps 713 mmHg 68%
22:00 +12°C° 0 mm 3 mps 713 mmHg 71%
23:00 +12°C° 0 mm 3 mps 713 mmHg 73%

13 July, Monday

Time Temperature Precipitation Wind Pressure Humidity
00:00 +11°C° 0 mm 3 mps 713 mmHg 75%
01:00 +11°C° 0 mm 3 mps 712 mmHg 78%
02:00 +11°C° 0 mm 3 mps 712 mmHg 79%
03:00 +10°C° 0 mm 3 mps 712 mmHg 81%
04:00 +10°C° 0 mm 4 mps 712 mmHg 83%
05:00 +12°C° 0 mm 4 mps 712 mmHg 78%
06:00 +13°C° 0 mm 4 mps 712 mmHg 73%
07:00 +15°C° 0 mm 4 mps 713 mmHg 67%
08:00 +17°C° 0 mm 4 mps 713 mmHg 61%
09:00 +19°C° 0 mm 5 mps 713 mmHg 55%
10:00 +20°C° 0 mm 5 mps 713 mmHg 49%
11:00 +21°C° 0 mm 4 mps 713 mmHg 48%
12:00 +22°C° 0 mm 4 mps 713 mmHg 47%
13:00 +22°C° 0 mm 4 mps 713 mmHg 46%
14:00 +22°C° 0 mm 4 mps 712 mmHg 47%
15:00 +22°C° 0 mm 4 mps 712 mmHg 48%
16:00 +22°C° 0 mm 4 mps 711 mmHg 49%
17:00 +21°C° 0 mm 4 mps 711 mmHg 56%
18:00 +19°C° 0 mm 3 mps 711 mmHg 62%
19:00 +18°C° 0 mm 3 mps 711 mmHg 69%
20:00 +17°C° 0 mm 3 mps 711 mmHg 72%
21:00 +14°C° 0 mm 3 mps 711 mmHg 75%
22:00 +13°C° 0 mm 3 mps 711 mmHg 79%
23:00 +13°C° 0 mm 3 mps 710 mmHg 79%

14 July, Tuesday

Time Temperature Precipitation Wind Pressure Humidity
00:00 +12°C° 0 mm 3 mps 710 mmHg 79%
01:00 +12°C° 0 mm 3 mps 710 mmHg 80%
02:00 +11°C° 0 mm 3 mps 710 mmHg 82%
03:00 +11°C° 0 mm 3 mps 710 mmHg 83%
04:00 +11°C° 0 mm 3 mps 709 mmHg 85%
05:00 +12°C° 0 mm 3 mps 710 mmHg 79%
06:00 +14°C° 0 mm 3 mps 710 mmHg 74%
07:00 +16°C° 0 mm 3 mps 711 mmHg 68%
08:00 +18°C° 0 mm 3 mps 711 mmHg 61%
09:00 +19°C° 0 mm 3 mps 711 mmHg 53%
10:00 +21°C° 0 mm 3 mps 711 mmHg 46%
11:00 +22°C° 0 mm 3 mps 711 mmHg 44%
12:00 +24°C° 0 mm 3 mps 711 mmHg 42%
13:00 +25°C° 0 mm 3 mps 711 mmHg 41%
14:00 +25°C° 0 mm 3 mps 711 mmHg 42%
15:00 +25°C° 0 mm 3 mps 711 mmHg 43%
16:00 +24°C° 0 mm 3 mps 711 mmHg 45%
17:00 +22°C° 0 mm 3 mps 710 mmHg 53%
18:00 +20°C° 0 mm 2 mps 710 mmHg 60%
19:00 +19°C° 0 mm 2 mps 710 mmHg 68%
20:00 +17°C° 0 mm 2 mps 710 mmHg 72%
21:00 +16°C° 0 mm 2 mps 710 mmHg 75%
22:00 +15°C° 0 mm 2 mps 710 mmHg 79%
23:00 +14°C° 0 mm 2 mps 710 mmHg 80%

15 July, Wednesday

Time Temperature Precipitation Wind Pressure Humidity
00:00 +14°C° 0 mm 2 mps 710 mmHg 81%
01:00 +14°C° 0 mm 2 mps 710 mmHg 82%
02:00 +13°C° 0 mm 2 mps 710 mmHg 82%
03:00 +13°C° 0 mm 1 mps 710 mmHg 82%
04:00 +13°C° 0 mm 1 mps 709 mmHg 82%
05:00 +15°C° 0 mm 1 mps 710 mmHg 76%
06:00 +18°C° 0 mm 1 mps 710 mmHg 71%
07:00 +19°C° 0 mm 1 mps 711 mmHg 65%
08:00 +21°C° 0 mm 1 mps 711 mmHg 58%
09:00 +23°C° 0 mm 1 mps 711 mmHg 51%
10:00 +25°C° 0 mm 1 mps 712 mmHg 45%
11:00 +26°C° 0 mm 1 mps 712 mmHg 43%
12:00 +27°C° 0 mm 1 mps 712 mmHg 41%
13:00 +27°C° 0 mm 1 mps 712 mmHg 40%
14:00 +27°C° 0 mm 1 mps 712 mmHg 41%
15:00 +26°C° 0 mm 1 mps 711 mmHg 43%
16:00 +26°C° 0 mm 1 mps 711 mmHg 45%
17:00 +24°C° 0 mm 1 mps 711 mmHg 53%
18:00 +22°C° 0 mm 1 mps 711 mmHg 60%
19:00 +21°C° 0 mm 1 mps 711 mmHg 68%
20:00 +19°C° 0 mm 1 mps 711 mmHg 70%
21:00 +18°C° 0 mm 1 mps 711 mmHg 72%
22:00 +16°C° 0 mm 1 mps 711 mmHg 75%
23:00 +16°C° 0 mm 1 mps 711 mmHg 75%
Show more